Tracking 28790 objects as of 19-Apr-2024
HD Live streaming from Space Station
objects crossing your sky now

STARLINK-1321

Track STARLINK-1321 now!
10-day predictions
STARLINK-1321 is classified as:


NORAD ID: 45573
Int'l Code: 2020-025AU
Perigee: 553.7 km
Apogee: 555.0 km
Inclination: 53.1 °
Period: 95.6 minutes
Semi major axis: 6925 km
RCS: Unknown
Launch date: April 22, 2020
Source: United States (US)
Launch site: AIR FORCE EASTERN TEST RANGE (AFETR)
Your satellite tracking list
Your tracking list is empty




NASA's NSSDC Master Catalog

Two Line Element Set (TLE):
1 45573U 20025AU  24109.79939569 -.00001538  00000-0 -84426-4 0  9993
2 45573  53.0529 293.6534 0000965  97.0650 263.0448 15.06394663220924
Source of the keplerian elements: AFSPC